Wind_Speed
81 81 80 80 80 80 80 80 79 80 80 81 81 81 81 81 81 81 81 81 81 81 82 82 83 84 86 87 89 90 91 92 93 94 95 95 95 96 96 96 96 96 95 95 95 94 94 94 93 93 93 93 92 92 92 91 91 91 90 90 90 89 89 88 88 87 87 86 86 85 85 84 84 84 83 83 82 82 81 81 81 81 81 81 81 81
82 82 82 81 81 81 81 81 80 80 81 81 81 82 82 82 82 82 82 82 82 82 82 82 83 83 84 86 87 88 90 91 92 93 94 95 96 96 96 97 97 97 97 96 96 96 96 95 95 95 94 94 94 94 93 93 93 92 92 92 91 91 90 90 90 89 89 88 88 87 87 86 86 85 85 84 84 83 83 82 82 82 82 82 82 81
83 83 83 83 82 82 82 82 82 81 81 81 82 82 82 82 82 82 82 82 82 82 82 82 82 83 84 85 86 87 88 90 91 92 93 94 95 96 97 97 97 97 98 97 97 97 97 97 97 96 96 96 96 95 95 95 94 94 94 93 93 92 92 92 91 91 91 90 89 89 88 88 87 87 86 86 85 85 84 84 84 83 83 83 83 83
84 84 84 84 83 83 83 83 83 82 82 82 82 82 82 83 83 83 83 83 83 83 83 83 83 83 83 84 85 86 87 88 89 91 92 93 94 95 96 97 97 98 98 98 98 98 98 98 98 98 97 97 97 97 97 96 96 96 95 95 94 94 93 93 93 92 92 92 91 90 90 89 89 88 88 87 87 86 86 85 85 85 85 84 84 84
85 85 85 85 84 84 85 84 84 84 84 83 83 83 83 83 83 84 84 84 84 84 84 83 83 83 83 84 84 85 86 87 88 89 90 92 93 94 95 96 97 97 98 98 98 98 99 99 99 99 98 98 98 98 98 98 97 97 97 96 96 95 95 95 94 94 93 93 92 92 91 91 90 90 89 89 88 88 87 87 86 86 86 85 85 85
87 87 86 86 86 86 86 85 85 85 85 84 84 84 84 84 84 84 84 84 85 85 85 85 84 84 84 84 84 84 85 86 86 88 89 90 92 93 94 95 96 97 97 98 98 98 99 99 99 99 99 99 99 99 99 99 98 98 98 97 97 96 96 96 95 95 95 94 94 93 93 92 92 91 91 90 89 89 88 88 88 87 87 86 86 86
88 88 87 87 87 87 87 86 86 86 86 86 86 85 85 85 85 85 85 85 85 86 86 86 85 85 85 85 85 85 85 85 86 87 88 89 90 91 92 94 95 95 96 97 97 98 98 99 99 99 99 99 99 100 99 99 99 99 99 98 98 98 97 97 96 96 96 95 95 94 94 93 93 92 92 91 91 90 89 89 89 88 88 87 87 87
89 89 89 88 88 88 88 88 88 87 87 87 87 86 86 86 86 86 86 86 86 86 86 87 87 87 86 86 85 85 85 85 85 86 87 88 89 90 91 92 93 94 95 96 96 97 98 98 98 99 99 99 99 100 100 100 100 99 99 99 99 98 98 98 97 97 97 96 96 95 95 94 94 93 93 92 91 91 90 90 90 89 89 88 88 88
91 91 90 90 90 89 89 89 89 88 88 88 88 88 87 87 87 87 87 87 87 87 87 88 88 88 88 87 87 86 86 86 86 86 86 87 88 88 89 90 92 92 94 95 95 96 97 97 98 98 99 99 99 99 100 100 100 100 100 99 99 99 99 98 98 98 97 97 96 96 95 95 94 94 93 93 92 92 91 91 90 90 89 89 89 89
93 93 92 92 91 91 91 90 90 90 89 89 89 89 89 88 88 88 88 88 88 88 88 88 88 89 89 89 88 88 87 87 87 86 86 87 87 88 88 89 90 91 92 93 94 95 95 96 97 97 98 98 99 99 99 99 99 100 99 99 99 99 99 99 99 98 98 98 97 96 96 95 95 94 94 93 93 92 92 91 91 90 90 90 90 89
96 95 94 94 93 93 92 92 92 91 91 90 90 90 90 90 90 89 89 89 89 89 89 89 89 89 89 90 89 89 89 89 88 88 87 87 87 87 88 88 89 90 91 92 92 93 94 95 96 96 97 97 98 98 98 99 99 99 99 99 99 99 99 99 99 99 98 98 97 97 96 96 95 95 94 94 93 93 92 92 91 91 91 90 90 90
98 98 97 96 96 95 95 94 94 93 92 92 91 91 91 91 91 91 91 91 91 90 90 90 90 90 90 90 90 90 90 90 90 90 89 88 88 88 88 88 89 89 90 90 91 92 93 94 94 95 96 96 97 97 97 98 98 98 99 99 99 99 99 99 99 99 98 98 97 97 96 96 95 95 94 94 93 93 93 92 92 91 91 91 91 91
101 100 99 99 98 98 97 96 96 95 94 94 93 93 93 93 92 92 92 92 92 92 92 91 91 91 91 91 91 91 91 91 91 91 91 90 90 89 89 89 89 89 89 90 90 91 92 92 93 94 94 95 96 96 96 97 97 98 98 98 98 98 98 98 98 98 98 98 98 97 97 96 95 95 94 94 94 93 93 92 92 92 91 91 91 91
103 103 102 101 101 100 100 99 98 97 97 96 96 95 95 95 94 93 94 94 94 94 93 93 93 93 93 93 93 92 92 92 93 92 92 92 92 91 90 90 90 89 89 90 90 91 91 91 92 93 93 94 94 95 95 96 96 97 97 97 97 98 98 97 97 97 97 97 97 97 97 96 96 95 95 94 94 93 93 92 92 92 92 91 92 92
105 105 104 104 104 103 102 102 101 100 100 99 98 98 97 96 96 95 95 96 96 95 95 95 95 94 94 94 94 94 94 94 94 93 94 94 93 93 92 92 91 91 90 90 90 91 91 91 91 92 93 93 94 94 95 95 95 96 96 96 97 97 97 97 97 97 97 97 97 97 96 96 96 95 95 94 94 93 93 93 92 92 92 92 92 92
108 107 107 107 106 106 105 104 103 103 102 102 101 100 99 99 98 98 98 98 98 97 97 96 96 96 96 96 96 95 95 95 95 95 95 95 95 94 94 93 93 93 92 92 91 91 91 91 91 92 92 92 93 93 94 94 95 95 95 96 96 96 96 96 96 96 96 96 96 96 96 96 95 95 95 95 94 94 93 93 93 92 92 92 92 92
110 110 109 109 109 108 108 107 106 105 105 104 103 102 102 101 101 101 100 100 100 99 99 99 98 98 98 98 97 97 96 96 96 96 96 96 96 96 95 95 95 95 94 94 93 93 92 92 92 92 92 92 92 93 93 93 94 94 94 95 95 95 96 96 96 96 96 96 96 96 95 95 95 95 95 95 94 94 93 93 93 93 92 92 92 92
112 112 112 112 111 111 110 109 108 108 107 106 106 105 105 104 104 103 103 102 102 102 101 101 101 100 100 100 99 99 98 98 98 98 98 98 98 97 96 96 96 96 96 96 95 95 94 94 93 93 93 93 93 93 93 93 93 93 94 94 94 94 95 95 95 96 96 96 95 95 95 95 95 95 95 95 94 94 94 94 93 93 93 92 92 92
115 115 114 114 114 113 113 112 111 110 110 109 109 108 107 107 106 106 105 105 105 104 104 103 103 103 102 102 102 101 100 99 99 99 99 99 99 99 98 97 98 98 98 97 97 97 96 96 95 95 94 94 94 93 93 93 93 93 93 93 94 94 94 94 95 95 95 95 95 95 95 95 95 95 95 94 94 94 94 94 94 93 93 93 92 92
118 117 117 117 116 116 115 115 114 113 113 112 111 111 110 110 109 108 108 108 107 107 106 106 105 105 104 104 104 103 102 101 101 101 101 101 101 100 99 99 99 99 99 99 99 98 98 98 97 97 96 96 95 95 94 94 94 94 93 93 93 93 94 94 94 94 94 95 95 95 95 95 94 94 94 94 94 94 94 94 94 93 93 93 93 92
120 120 120 119 119 118 118 117 117 116 115 115 114 113 113 113 112 111 111 110 110 109 109 108 108 107 107 106 106 105 104 103 102 102 103 102 102 102 101 101 100 100 101 100 100 100 99 99 99 99 98 98 97 97 96 96 95 95 94 94 94 94 94 94 94 94 94 94 94 94 94 94 94 94 94 94 94 94 94 94 94 93 93 93 93 92
123 123 122 122 121 121 121 120 120 119 118 117 117 117 116 116 115 114 114 113 112 112 111 111 110 110 109 108 108 107 106 105 105 104 104 104 104 104 103 102 102 102 102 102 101 101 101 100 100 100 100 99 99 99 98 98 97 97 96 96 95 95 95 94 94 94 94 94 94 94 94 94 94 94 94 93 93 93 93 93 93 93 93 93 93 92
125 125 125 124 124 123 123 123 122 122 121 120 120 120 119 118 118 117 116 116 115 114 114 113 113 112 111 110 110 109 108 107 107 106 106 106 106 106 105 104 104 103 104 103 103 102 102 102 102 101 101 101 101 100 100 99 99 99 98 98 97 97 96 96 95 95 95 94 94 94 94 94 94 94 94 93 93 93 93 93 93 93 93 93 93 93
127 127 127 126 126 126 125 125 125 124 124 123 123 122 122 121 121 120 119 118 118 117 116 116 115 114 113 113 112 111 111 110 109 108 108 108 108 108 107 106 105 105 105 105 104 104 103 103 103 103 102 102 102 102 101 101 101 100 100 99 99 99 98 98 97 97 96 96 95 95 95 95 95 95 94 94 94 94 93 94 94 94 94 94 93 93
128 128 128 128 128 128 128 127 127 127 126 126 126 125 124 124 123 122 122 121 120 120 119 118 117 117 116 115 114 114 113 112 111 110 110 110 110 110 109 108 107 107 107 107 106 105 105 105 104 104 104 104 103 103 103 102 102 102 102 101 101 100 100 100 99 98 98 97 97 96 96 96 96 96 96 95 95 95 95 94 94 94 95 94 94 94
129 129 129 129 129 130 129 129 129 129 129 128 128 128 127 126 126 125 124 124 123 122 121 121 120 120 119 118 117 116 115 114 113 113 112 112 112 112 111 110 109 109 109 108 107 107 106 106 106 106 105 105 104 104 104 104 104 103 103 103 102 102 102 101 101 100 100 99 99 98 98 98 97 97 97 97 97 97 96 96 96 96 96 96 96 96
129 129 130 130 130 131 131 131 131 131 131 131 130 130 129 129 128 128 127 127 126 125 124 123 123 122 121 120 119 118 117 116 115 115 114 114 114 114 113 112 111 110 110 110 109 108 108 108 108 107 107 106 106 106 105 105 105 105 104 104 103 103 103 103 102 102 102 101 101 100 100 99 99 99 99 99 99 98 98 98 98 98 98 98 98 98
129 129 130 130 131 131 132 132 132 132 132 132 132 132 131 131 130 130 130 129 128 127 126 126 125 124 123 122 121 120 119 118 118 117 116 116 116 116 115 114 113 112 112 112 111 110 110 109 109 109 108 108 107 107 107 106 106 106 105 105 104 104 104 104 103 103 103 103 103 102 102 101 101 101 101 101 101 101 100 100 100 100 100 100 100 100
129 129 130 130 131 132 132 133 133 133 133 133 133 133 133 132 132 132 132 131 130 129 129 128 127 126 125 124 123 122 121 121 120 119 118 117 118 118 117 116 115 114 114 113 113 112 112 111 111 110 110 109 109 109 108 108 107 107 106 106 106 105 105 105 104 104 104 104 104 104 103 103 103 103 102 102 102 102 102 102 102 102 102 102 102 102
128 129 130 130 131 132 132 133 133 134 134 134 134 134 134 133 133 133 133 132 131 131 131 130 129 128 127 126 125 124 123 123 121 120 119 119 120 119 118 117 117 116 115 115 115 114 114 114 113 112 112 111 111 110 110 109 109 108 108 107 107 106 106 106 105 105 105 105 105 105 105 105 104 104 104 104 104 104 104 104 104 104 104 104 104 104
128 129 129 130 131 131 132 133 133 134 134 134 134 135 134 134 134 134 133 133 132 132 132 131 130 129 128 127 126 126 125 124 123 121 121 121 121 121 120 119 119 118 117 117 117 117 117 116 115 114 113 113 113 112 112 111 110 110 109 109 108 108 107 107 107 106 106 106 106 106 106 106 106 106 106 105 105 105 105 105 105 105 105 105 105 105
128 129 129 130 130 131 131 132 133 133 134 134 134 134 134 134 134 134 134 133 133 133 132 131 131 130 129 128 128 127 127 125 124 123 122 122 123 122 121 121 120 120 119 118 118 118 119 118 117 116 115 115 115 114 113 113 112 112 111 111 110 110 109 108 108 107 107 107 107 107 107 107 107 107 107 107 107 106 106 106 106 106 106 106 107 107
128 128 129 129 130 130 131 131 132 133 133 133 134 134 134 134 134 134 133 133 133 132 132 131 131 130 129 129 128 128 127 126 125 124 123 124 124 124 123 122 122 121 121 120 120 120 120 120 119 118 118 117 117 116 116 115 114 114 113 112 112 111 111 110 109 109 109 108 108 108 108 108 108 108 108 108 108 108 107 107 107 107 107 107 107 108
128 128 129 129 130 130 130 131 131 132 132 132 133 133 133 133 133 133 132 132 132 131 131 131 130 130 129 129 128 128 127 127 126 125 124 124 125 125 124 124 123 123 122 122 121 121 121 121 121 120 120 119 119 118 117 117 116 115 115 114 114 114 113 112 111 111 110 110 110 109 109 109 109 109 109 109 109 109 109 108 108 108 108 108 108 108
127 128 128 129 129 129 130 130 131 131 131 131 131 132 132 131 131 131 131 131 131 130 130 129 129 129 128 128 128 127 127 126 126 125 125 125 125 125 125 125 124 124 123 123 123 123 122 123 122 122 122 121 121 120 119 119 118 118 117 116 116 116 115 114 113 113 112 112 111 111 111 110 110 110 110 110 110 110 110 110 110 109 109 109 109 109
127 127 128 128 129 129 129 129 130 130 130 130 130 130 130 130 130 129 129 129 129 128 128 127 127 127 127 126 126 126 126 126 125 125 125 125 125 125 126 126 125 125 124 124 124 124 124 124 123 123 123 123 122 122 121 120 120 119 119 118 118 118 117 116 115 115 114 114 113 113 113 112 112 112 112 112 112 112 112 111 111 111 111 110 110 110
126 127 127 127 128 128 128 128 128 129 129 129 129 128 128 128 128 128 127 127 126 126 125 125 124 124 124 124 124 124 124 124 124 124 124 124 125 125 126 126 125 125 125 125 125 125 125 125 125 124 124 124 124 123 123 122 121 121 121 120 120 119 119 118 117 117 116 116 115 115 114 114 114 114 114 113 113 113 113 113 113 113 113 113 112 112
125 126 126 126 126 127 127 127 127 127 127 127 127 127 126 126 126 125 125 125 124 123 123 122 122 121 121 121 121 122 122 122 122 122 123 123 123 124 124 125 125 125 125 125 125 125 125 125 125 125 125 125 124 124 123 123 122 122 122 121 121 120 120 119 119 118 118 118 117 117 116 116 116 115 115 115 115 115 115 115 115 115 114 114 114 114
124 124 124 125 125 125 125 125 125 125 125 125 125 125 125 124 124 124 123 123 122 121 120 120 119 118 118 117 118 118 118 119 120 120 120 121 121 122 123 123 124 124 124 125 125 125 125 125 126 125 125 125 125 124 124 123 123 123 122 122 122 121 121 121 120 120 119 119 119 118 118 118 117 117 117 117 117 117 117 117 117 116 116 116 117 116
122 122 122 123 123 123 123 123 123 123 123 123 123 123 123 123 123 122 122 121 120 119 119 118 116 116 115 114 114 114 115 115 116 117 118 118 119 120 120 121 122 123 123 124 124 124 124 125 125 125 125 125 124 124 123 123 123 123 122 122 122 122 122 121 121 120 120 120 120 120 119 119 119 119 119 118 118 118 118 118 118 118 118 118 118 119
119 120 120 120 120 120 120 121 121 121 121 121 121 121 121 121 121 121 120 119 119 118 117 116 115 114 112 111 111 111 111 112 112 113 114 116 117 117 118 119 120 121 121 122 122 123 123 123 124 124 123 124 123 123 123 123 122 122 122 122 122 122 121 121 121 121 121 120 120 120 120 120 120 120 120 119 120 119 120 119 120 120 120 120 120 120
117 117 117 117 118 118 118 118 118 119 119 119 119 120 120 119 119 119 118 118 117 116 115 114 113 112 111 109 108 107 107 108 109 110 111 113 114 115 116 117 118 118 119 120 120 121 121 121 121 121 121 121 121 122 121 121 121 121 121 121 121 121 121 121 121 121 121 121 121 120 120 120 120 120 120 120 120 120 120 120 120 121 121 121 121 121
114 115 115 115 115 115 115 116 116 117 117 117 118 118 118 117 117 117 117 116 115 114 113 113 112 110 109 107 106 105 104 105 106 107 108 110 111 112 113 114 115 116 117 117 118 118 118 119 119 119 119 119 119 119 119 119 119 119 119 119 119 119 120 120 120 120 120 120 120 120 120 120 120 120 120 120 120 120 120 121 121 121 121 121 122 122
112 112 112 113 113 113 113 114 114 115 115 115 116 116 116 115 115 115 115 114 113 113 112 111 109 108 107 105 104 102 102 102 103 104 106 107 109 110 111 112 113 114 114 115 116 116 116 116 116 116 116 116 116 116 117 117 117 117 117 117 117 117 118 118 117 117 118 118 118 119 119 119 119 119 119 120 120 120 120 120 121 121 121 121 122 122
110 111 111 111 111 111 112 112 112 112 113 113 114 114 113 113 113 113 112 112 111 110 110 109 108 107 105 104 102 100 99 99 100 101 103 104 106 107 109 110 111 112 112 113 113 113 113 113 113 113 113 113 113 113 114 114 114 114 114 114 114 114 114 115 115 115 115 116 116 117 117 117 117 118 118 119 119 119 119 120 120 120 121 121 121 122
109 109 109 110 110 110 110 110 110 110 111 111 112 112 111 111 111 110 110 110 109 109 108 107 106 105 104 102 100 98 98 98 98 99 100 101 103 104 106 107 109 109 110 110 110 110 110 110 110 110 110 110 110 111 111 111 111 111 111 111 111 111 111 111 111 112 112 112 113 114 114 115 115 115 116 117 117 118 118 118 119 119 120 120 120 121
108 108 108 108 108 108 108 108 108 108 109 109 109 109 109 109 109 108 108 107 107 106 105 104 104 103 102 100 98 97 96 96 96 96 97 98 99 101 103 104 106 107 108 108 108 107 107 107 107 107 107 108 108 108 108 108 108 108 108 108 108 108 108 108 108 108 108 109 109 110 111 111 112 113 114 114 115 115 116 116 117 118 118 118 119 120
106 106 106 106 106 106 106 106 106 107 107 107 107 107 107 106 106 106 106 105 104 104 103 103 102 101 100 99 97 96 95 95 95 95 95 96 97 98 100 101 103 104 105 105 105 105 105 105 105 105 105 105 106 106 106 105 106 106 106 106 105 105 105 105 105 105 105 106 106 107 107 108 109 110 110 111 112 113 113 114 115 115 116 117 117 118
105 105 105 105 105 105 105 104 104 105 105 105 105 105 105 104 104 104 104 103 102 102 101 101 100 99 98 97 95 94 94 93 93 93 93 93 94 95 96 98 100 101 102 103 103 103 102 102 102 102 103 103 103 104 104 103 103 103 103 103 103 103 103 103 102 102 102 103 103 104 104 105 106 107 108 108 109 110 111 112 113 113 114 115 115 116
103 103 103 103 103 103 103 103 103 103 103 103 103 103 102 102 102 101 101 101 100 100 99 98 97 96 95 94 93 92 92 92 91 91 91 91 92 92 94 95 96 98 99 100 100 100 100 100 100 100 100 101 101 101 102 101 101 101 101 101 101 101 100 100 100 100 100 100 101 101 102 103 103 104 105 106 106 107 109 110 110 111 112 112 113 114
102 102 101 101 101 101 101 101 101 101 101 101 101 100 100 100 100 99 99 99 98 98 97 96 95 94 93 92 91 90 90 89 89 89 89 89 89 90 91 92 93 94 95 96 97 97 97 98 98 98 98 98 98 99 99 99 99 99 99 99 99 98 98 98 98 98 98 98 98 99 100 100 101 102 102 103 104 105 106 107 108 109 110 111 111 112
Wind_Direction
250 250 250 250 250 250 250 249 249 249 249 248 248 248 249 249 249 249 250 250 249 249 249 249 248 248 248 248 248 248 248 248 248 248 248 248 248 248 249 249 249 250 250 250 251 251 251 252 252 252 253 253 254 254 254 255 255 256 256 257 257 258 259 259 259 260 260 261 261 262 262 262 263 263 263 264 264 264 265 265 265 265 266 266 266 266
250 251 251 250 250 250 250 250 250 249 249 249 248 248 248 248 249 249 249 250 250 250 250 249 249 249 248 248 248 248 248 248 248 248 248 248 248 249 249 249 249 250 250 250 251 251 251 252 252 252 253 253 254 254 254 255 255 256 256 257 257 258 258 259 259 260 260 261 261 261 262 262 263 263 263 263 264 264 264 265 265 265 265 266 266 266
250 250 251 251 251 251 251 250 250 250 250 249 249 249 248 248 248 249 249 249 250 250 250 250 250 250 249 249 249 248 248 248 248 248 248 248 248 249 249 249 249 250 250 250 251 251 251 252 252 252 253 253 254 254 254 255 255 256 256 256 257 257 258 258 259 259 260 260 261 261 261 262 262 263 263 263 263 264 264 264 265 265 265 265 266 266
250 250 250 250 251 251 251 251 251 250 250 250 250 249 249 249 248 248 248 249 249 250 250 250 250 250 250 250 249 249 249 248 248 248 248 248 249 249 249 249 249 250 250 250 250 251 251 252 252 252 253 253 254 254 254 255 255 256 256 256 257 257 258 258 259 259 260 260 260 261 261 262 262 262 263 263 263 263 264 264 264 265 265 265 266 266
249 250 250 250 250 251 251 251 251 251 251 251 250 250 250 249 249 249 248 248 249 249 249 250 250 250 251 250 250 250 250 249 249 249 249 249 249 249 249 249 249 250 250 250 250 251 251 251 252 252 253 253 254 254 254 255 255 256 256 256 257 257 257 258 258 259 259 260 260 260 261 261 262 262 262 263 263 263 264 264 264 265 265 265 265 266
249 249 249 250 250 250 251 251 251 251 251 251 251 251 251 250 250 249 249 249 248 249 249 249 250 250 251 251 251 251 250 250 250 249 249 249 249 249 249 249 249 250 250 250 250 251 251 251 252 252 253 253 253 254 254 255 255 256 256 256 257 257 257 258 258 259 259 259 260 260 261 261 261 262 262 262 263 263 263 264 264 264 265 265 265 265
248 249 249 249 250 250 250 250 251 251 251 251 251 251 251 251 251 250 250 249 249 249 249 249 249 250 250 250 251 251 251 251 251 250 250 250 249 249 249 249 250 250 250 250 250 251 251 251 251 252 252 253 253 254 254 255 255 255 256 256 257 257 257 258 258 258 259 259 260 260 260 261 261 261 262 262 262 263 263 264 264 264 264 265 265 265
248 248 248 249 249 249 250 250 250 251 251 251 251 251 251 251 251 251 251 250 250 249 249 249 249 249 249 250 250 251 251 251 251 251 251 251 250 250 250 250 250 250 250 250 250 251 251 251 251 252 252 253 253 253 254 254 255 255 256 256 257 257 257 258 258 258 259 259 259 260 260 261 261 261 262 262 262 263 263 263 264 264 264 265 265 265
247 247 248 248 248 249 249 249 250 250 250 251 251 251 251 251 251 251 251 251 251 250 250 250 249 249 249 249 250 250 251 251 251 251 251 251 251 251 251 251 250 250 250 251 251 251 251 251 251 252 252 252 253 253 254 254 255 255 256 256 256 257 257 258 258 258 258 259 259 260 260 260 261 261 262 262 262 263 263 263 263 264 264 264 265 265
246 247 247 247 248 248 249 249 249 249 250 250 250 251 251 251 251 251 252 251 251 251 251 251 250 250 250 249 249 250 250 251 251 251 252 252 252 252 251 251 251 251 251 251 251 251 251 251 252 252 252 252 253 253 254 254 254 255 255 256 256 257 257 257 258 258 258 259 259 259 260 260 260 261 261 262 262 262 263 263 263 264 264 264 264 265
246 246 246 246 247 247 248 248 249 249 249 250 250 250 251 251 251 251 252 252 251 251 251 251 251 251 250 250 250 250 250 250 250 251 251 251 252 252 252 252 252 252 252 252 252 252 252 252 252 252 252 252 253 253 253 254 254 255 255 255 256 256 257 257 258 258 258 259 259 259 259 260 260 261 261 261 262 262 262 263 263 263 264 264 264 265
246 246 246 246 246 246 247 247 248 248 248 249 249 250 250 250 250 251 251 251 251 251 251 251 251 251 251 251 251 250 250 250 250 250 251 251 251 252 252 252 252 252 252 252 252 252 252 252 252 252 252 253 253 253 253 254 254 254 255 255 256 256 256 257 257 258 258 259 259 259 259 260 260 260 261 261 261 262 262 262 263 263 264 264 264 264
246 246 246 246 246 246 246 247 247 247 248 248 248 248 249 249 250 250 251 251 251 251 251 251 252 252 252 252 251 251 251 251 250 250 251 251 251 251 252 252 252 252 253 253 253 253 253 253 253 253 253 253 253 253 254 254 254 254 255 255 255 256 256 257 257 257 258 258 259 259 259 260 260 260 260 260 261 261 262 262 262 263 263 263 264 264
246 246 246 246 246 246 246 246 246 247 247 247 247 248 248 248 249 249 250 250 251 251 251 251 251 251 251 252 252 251 251 251 251 251 251 251 251 251 251 251 252 252 252 253 253 253 253 253 253 253 253 253 253 254 254 254 254 254 255 255 255 256 256 256 257 257 258 258 259 259 259 259 260 260 260 260 260 261 261 261 262 262 263 263 263 264
247 247 247 247 246 246 246 246 246 246 246 247 247 247 248 248 248 249 249 250 250 250 250 250 251 251 251 251 251 251 252 252 251 251 251 251 251 251 251 251 251 252 252 252 253 253 253 253 253 254 254 254 254 254 254 254 254 255 255 255 256 256 256 256 257 257 257 258 258 259 259 259 260 260 260 260 260 261 261 261 261 262 262 262 263 263
247 247 247 247 247 247 247 246 246 247 247 247 247 247 247 247 248 248 248 249 249 249 250 250 250 250 250 250 251 251 251 252 252 252 252 251 251 251 251 251 251 252 252 252 252 253 253 253 253 254 254 254 254 254 254 254 255 255 255 255 256 256 256 257 257 257 257 257 258 258 259 259 259 260 260 260 260 260 261 261 261 261 262 262 262 263
247 247 247 247 247 247 247 247 247 247 247 247 247 247 247 247 247 247 248 248 248 249 249 249 250 250 250 250 250 250 251 251 251 252 252 252 252 251 251 251 252 252 252 252 252 252 252 253 253 253 254 254 254 254 255 255 255 255 255 255 256 256 256 257 257 257 257 258 258 258 258 259 259 260 260 260 260 260 261 261 261 261 261 261 262 262
247 247 247 247 247 247 247 247 247 247 247 247 247 247 247 247 247 247 248 248 248 248 248 249 249 249 250 250 250 250 250 250 251 251 252 252 252 252 251 252 252 252 252 252 252 252 252 253 253 253 253 254 254 254 255 255 255 255 255 255 256 256 256 257 257 257 258 258 258 258 258 258 259 259 259 260 260 260 260 261 261 261 261 261 261 262
247 247 247 247 248 248 248 248 248 248 248 247 247 247 247 247 247 247 248 248 248 248 248 248 249 249 249 250 250 250 250 250 251 251 251 252 252 252 252 252 252 252 252 252 252 252 252 252 253 253 253 253 254 254 254 255 255 255 255 255 256 256 256 257 257 257 257 258 258 258 258 258 258 259 259 259 260 260 260 260 260 261 261 261 261 261
247 247 247 247 248 248 248 248 248 248 248 248 248 248 248 248 248 248 248 248 248 248 248 248 248 249 249 249 250 250 250 250 250 251 251 252 252 252 252 252 252 252 252 252 252 252 253 253 253 253 253 253 254 254 254 255 255 255 255 256 256 256 256 256 257 257 257 258 258 258 258 258 258 258 259 259 259 259 260 260 260 260 260 261 261 261
247 247 247 247 248 248 248 248 248 248 248 248 248 248 248 248 248 248 248 248 248 248 248 248 249 249 249 249 249 250 250 250 250 251 251 251 252 252 252 252 252 252 253 253 253 253 253 253 253 253 253 254 254 254 254 255 255 255 255 256 256 256 256 256 257 257 257 257 258 258 258 258 258 258 259 259 259 259 259 259 260 260 260 260 260 261
247 247 247 247 248 248 248 248 248 248 248 248 248 248 248 248 248 248 248 248 248 248 248 248 249 249 249 249 250 250 250 250 250 250 251 251 251 252 252 252 252 253 253 253 253 253 253 253 254 254 254 254 254 254 255 255 255 255 255 256 256 256 256 257 257 257 257 257 258 258 258 259 259 259 259 259 259 259 259 259 260 260 260 260 260 260
247 247 247 247 248 248 248 248 248 248 248 248 248 248 248 248 248 248 248 248 248 248 248 249 249 249 249 250 250 250 250 250 250 250 251 251 251 252 252 252 252 253 253 253 253 253 254 254 254 254 254 254 255 255 255 255 255 255 256 256 256 256 257 257 257 257 257 258 258 258 259 259 259 259 259 259 259 259 260 260 260 260 260 260 260 261
247 247 247 248 248 248 248 248 248 249 249 249 249 249 249 249 249 249 249 248 248 248 249 249 249 249 249 249 250 250 250 250 250 251 251 251 252 252 252 252 252 253 253 253 253 254 254 254 254 254 255 255 255 255 255 255 256 256 256 256 256 257 257 257 257 258 258 258 258 259 259 259 260 260 260 260 260 260 260 260 260 261 261 261 261 261
247 247 248 248 248 248 248 248 248 249 249 249 249 249 249 249 249 249 249 249 249 249 249 249 249 249 249 249 250 250 250 250 250 251 251 251 252 252 252 252 252 253 253 253 254 254 254 254 254 255 255 255 255 255 256 256 256 256 256 257 257 257 257 258 258 258 258 258 259 259 259 259 260 260 260 261 261 261 261 261 261 261 262 262 262 262
247 248 248 248 248 248 248 248 249 249 249 249 249 249 249 249 249 249 249 249 249 249 249 249 249 249 249 249 249 250 250 250 250 251 251 251 252 252 252 252 253 253 253 254 254 254 254 254 255 255 255 255 255 256 256 256 256 257 257 257 257 257 258 258 258 258 259 259 259 259 259 260 260 260 261 261 261 262 262 262 262 262 262 263 263 263
247 248 248 248 248 248 248 248 249 249 249 249 249 249 249 249 249 249 249 249 249 249 249 249 249 249 249 249 250 250 250 250 250 250 251 251 252 252 252 253 253 253 253 254 254 254 254 255 255 255 255 255 256 256 256 256 257 257 257 257 257 258 258 258 259 259 259 259 260 260 260 260 260 261 261 261 262 262 262 262 263 263 263 263 264 264
247 248 248 248 248 248 248 248 249 249 249 249 249 249 249 249 249 249 249 249 250 250 250 250 250 250 250 250 250 250 250 250 250 251 251 251 252 252 253 253 253 253 254 254 254 254 255 255 255 255 256 256 256 256 256 256 257 257 257 257 258 258 258 258 259 259 259 260 260 260 260 260 261 261 261 261 262 262 262 263 263 263 264 264 264 264
247 248 248 248 248 248 248 248 249 249 249 249 249 249 249 249 249 249 249 250 250 250 250 250 250 250 250 250 250 250 251 251 251 251 251 251 251 252 252 253 253 253 254 254 254 255 255 255 255 256 256 256 256 256 256 257 257 257 257 257 258 258 258 258 259 259 259 260 260 260 260 261 261 261 261 261 262 262 262 263 263 263 264 264 264 265
247 247 248 248 248 248 248 248 249 249 249 249 249 249 249 249 249 249 250 250 250 250 250 250 250 250 251 251 251 251 251 251 251 251 251 251 252 252 253 253 253 253 254 254 254 255 255 255 255 256 256 256 256 257 257 257 257 257 257 258 258 258 258 258 258 259 259 259 260 260 260 261 261 261 261 261 261 262 262 263 263 263 264 264 264 265
247 247 248 248 248 248 248 249 249 249 249 249 249 249 250 250 250 250 250 250 250 250 250 250 250 251 251 251 251 251 251 251 252 252 252 252 252 252 253 253 253 253 254 254 254 255 255 255 256 256 256 256 257 257 257 257 257 257 258 258 258 258 258 258 258 259 259 259 259 260 260 260 261 261 261 261 261 262 262 262 263 263 263 264 264 264
247 248 248 248 248 248 249 249 249 249 249 250 250 250 250 250 250 250 250 250 250 250 250 251 251 251 251 251 251 251 252 252 252 252 252 252 252 253 253 253 253 253 254 254 254 254 255 256 256 256 256 256 256 257 257 257 257 258 258 258 258 258 258 258 259 259 259 259 259 259 260 260 260 261 261 261 261 262 262 262 262 262 263 263 264 264
248 248 248 248 248 249 249 249 249 250 250 250 250 250 250 250 250 251 251 251 251 251 251 251 251 251 251 251 251 252 252 252 253 253 253 253 253 253 253 253 254 254 254 254 254 254 255 255 256 256 256 256 256 257 257 257 258 258 258 258 258 258 259 259 259 259 259 259 259 259 260 260 260 260 261 261 261 262 262 262 262 262 263 263 263 264
248 248 248 248 249 249 249 249 250 250 250 250 251 251 251 251 251 251 251 251 251 251 251 252 252 252 252 252 252 252 252 253 253 253 253 253 253 253 254 254 254 254 254 254 254 254 255 255 256 256 256 256 257 257 257 257 257 258 258 258 258 258 259 259 259 259 259 259 259 259 260 260 260 260 261 261 261 262 262 262 262 262 262 263 263 263
248 248 248 249 249 249 249 250 250 250 251 251 251 251 252 252 252 252 252 252 252 252 252 252 252 252 253 253 253 253 253 253 253 253 253 253 254 254 254 254 254 254 254 255 255 255 255 255 255 256 256 256 257 257 257 257 257 258 258 258 258 258 259 259 259 259 259 259 259 259 260 260 260 260 261 261 261 261 262 262 262 262 263 263 263 263
248 249 249 249 249 249 250 250 250 251 251 251 252 252 252 253 253 253 253 253 253 253 253 253 253 253 253 253 253 254 254 254 254 254 254 254 254 254 254 254 255 255 255 255 255 255 255 255 256 256 256 256 257 257 257 257 257 258 258 258 258 258 259 259 259 259 259 259 259 260 260 260 260 260 260 261 261 261 262 262 262 263 263 263 263 263
249 249 249 249 250 250 250 251 251 251 252 252 252 253 253 253 254 254 254 254 254 254 254 254 254 254 254 254 254 254 254 254 254 254 254 254 254 255 255 255 255 255 255 255 255 255 255 256 256 256 256 256 257 257 257 257 257 258 258 258 258 259 259 259 259 259 259 260 260 260 260 260 260 260 261 261 261 261 262 262 262 263 263 263 263 264
249 250 250 250 250 251 251 251 252 252 252 253 253 253 254 254 254 255 255 255 255 255 255 255 255 255 254 254 255 255 255 255 255 255 255 255 255 255 255 255 255 255 255 255 255 256 256 256 256 256 256 256 257 257 257 257 257 258 258 258 258 259 259 259 259 259 260 260 260 260 260 260 260 261 261 261 261 261 262 262 262 263 263 263 263 264
250 250 251 251 251 251 252 252 252 253 253 253 254 254 254 255 255 255 256 256 256 256 256 256 256 255 255 255 255 255 255 255 256 256 256 255 255 255 255 255 255 256 255 256 256 256 256 256 256 256 256 257 257 257 257 257 258 258 258 258 259 259 259 259 259 260 260 260 260 260 260 260 261 261 261 261 261 261 262 262 262 262 263 263 263 264
251 251 251 252 252 252 252 253 253 253 254 254 254 255 255 255 256 256 256 256 257 257 257 257 256 256 256 255 255 255 255 256 256 256 256 256 256 256 256 256 256 256 256 256 256 256 256 256 256 256 256 257 257 257 257 257 258 258 258 258 259 259 259 259 260 260 260 260 260 260 260 260 261 261 261 261 261 261 262 262 262 262 262 263 263 263
252 252 252 252 253 253 253 253 254 254 254 255 255 255 255 256 256 256 256 257 257 257 257 257 257 257 256 256 255 255 255 255 256 256 256 256 256 256 256 256 256 256 256 256 256 256 256 256 256 256 257 257 257 257 257 258 258 258 258 258 259 259 259 259 260 260 260 260 260 260 260 261 261 261 261 261 261 261 262 262 262 262 262 262 263 263
253 253 253 253 253 253 254 254 254 254 255 255 255 255 256 256 256 256 257 257 257 257 257 257 257 257 257 256 256 255 255 255 255 256 256 256 256 256 256 256 256 256 256 256 256 256 256 256 256 257 257 257 257 257 258 258 258 258 258 258 259 259 259 259 260 260 260 260 260 260 261 261 261 261 261 261 261 261 261 262 262 262 262 262 262 262
253 253 253 253 254 254 254 254 254 254 255 255 255 255 256 256 256 256 257 257 257 257 258 258 258 258 257 257 256 255 255 255 255 255 256 256 256 256 256 256 256 256 256 256 256 256 256 256 257 257 257 257 257 258 258 258 258 258 258 258 258 259 259 259 259 260 260 260 260 261 261 261 261 261 261 261 261 261 261 261 262 262 262 262 262 262
253 253 253 254 254 254 254 254 254 254 254 255 255 255 255 256 256 256 257 257 257 257 257 258 258 257 257 257 256 255 255 254 254 255 255 255 256 256 256 256 256 256 256 256 256 256 257 257 257 257 257 257 258 258 258 258 258 258 258 258 258 259 259 259 259 260 260 260 260 261 261 261 261 261 261 261 261 261 261 261 261 262 262 262 262 262
253 253 253 253 253 253 253 253 253 254 254 254 254 255 255 255 256 256 256 257 257 257 257 257 257 258 257 257 256 256 255 254 254 254 254 255 255 255 256 256 256 256 256 256 256 256 257 257 257 257 257 257 258 258 258 258 258 258 258 258 258 258 259 259 259 259 260 260 260 260 261 261 261 261 261 261 261 261 261 261 261 261 262 262 262 262
253 253 253 253 253 253 253 253 253 253 253 254 254 254 255 255 255 255 256 256 256 257 257 257 257 257 257 257 256 256 255 254 254 254 254 254 254 255 255 256 256 256 256 256 256 256 257 257 257 257 258 258 258 258 258 258 258 258 258 258 258 259 259 259 259 259 259 260 260 260 260 261 261 261 261 261 261 261 261 261 261 261 261 262 262 262
252 252 252 252 252 252 252 252 253 253 253 253 253 254 254 254 255 255 255 256 256 256 256 256 257 257 257 257 256 256 255 255 254 254 253 253 254 254 255 255 256 256 256 256 256 257 257 257 257 257 258 258 258 258 258 258 258 259 259 259 259 259 259 259 259 259 259 259 260 260 260 260 261 261 261 261 261 261 261 261 261 261 261 261 261 262
252 252 252 252 252 252 252 252 252 252 253 253 253 253 254 254 254 255 255 255 255 255 256 256 256 256 256 256 256 256 255 255 254 254 253 253 253 254 254 255 255 256 256 256 256 257 257 257 257 257 258 258 258 258 258 258 258 259 259 259 259 259 259 259 259 259 259 259 259 260 260 260 260 261 261 261 261 261 261 261 261 261 261 261 261 261
252 252 252 252 252 252 252 252 252 252 252 252 253 253 253 253 254 254 254 255 255 255 255 255 255 256 256 256 256 255 255 255 254 254 253 253 253 253 254 254 255 255 256 256 256 257 257 257 257 257 258 258 258 258 258 259 259 259 259 259 259 259 259 259 259 259 259 259 259 259 260 260 260 260 260 261 261 261 261 261 261 261 261 261 261 261
252 252 252 252 252 252 252 252 252 252 252 252 252 253 253 253 253 254 254 254 255 255 255 255 255 255 255 255 255 255 255 255 254 254 253 253 253 253 253 254 254 255 255 256 256 256 257 257 257 257 257 258 258 258 259 259 259 259 259 259 259 259 259 259 259 259 259 259 259 259 259 259 260 260 260 260 260 261 261 261 261 261 261 261 261 261
252 252 252 252 252 252 252 252 252 252 252 252 252 252 253 253 253 253 253 254 254 254 254 255 255 255 255 254 254 254 254 254 254 254 253 253 253 253 253 254 254 255 255 256 256 256 257 257 257 257 257 258 258 258 259 259 259 259 259 259 259 260 260 260 259 259 259 259 259 259 259 259 259 259 259 260 260 260 260 260 260 260 261 261 261 261
Height
10493 10495 10497 10499 10500 10501 10502 10504 10506 10507 10508 10509 10510 10511 10513 10514 10514 10516 10517 10518 10520 10521 10523 10523 10524 10526 10528 10529 10531 10532 10534 10536 10538 10539 10541 10543 10544 10546 10548 10550 10551 10553 10555 10557 10559 10560 10562 10563 10565 10566 10568 10569 10571 10572 10573 10574 10576 10577 10578 10579 10581 10582 10583 10584 10585 10586 10587 10588 10589 10590 10591 10592 10593 10593 10594 10595 10596 10596 10597 10598 10598 10599 10599 10599 10599 10600
10486 10488 10491 10492 10493 10494 10495 10497 10499 10501 10501 10503 10504 10506 10507 10508 10509 10510 10511 10513 10514 10515 10516 10518 10519 10520 10521 10523 10524 10526 10528 10529 10531 10533 10534 10536 10538 10539 10541 10543 10544 10546 10548 10550 10552 10553 10555 10557 10558 10560 10561 10563 10564 10565 10567 10568 10569 10571 10572 10573 10574 10576 10577 10578 10579 10579 10581 10582 10583 10584 10585 10586 10586 10588 10588 10589 10590 10591 10591 10591 10592 10593 10593 10593 10594 10594
10480 10483 10484 10485 10487 10488 10489 10490 10493 10494 10494 10496 10498 10499 10501 10502 10503 10504 10506 10506 10508 10509 10510 10511 10513 10514 10515 10516 10518 10519 10521 10523 10524 10526 10528 10529 10531 10533 10534 10536 10538 10539 10541 10543 10545 10547 10548 10550 10551 10553 10554 10556 10558 10559 10560 10561 10563 10564 10566 10567 10568 10569 10571 10571 10573 10573 10574 10575 10576 10578 10579 10579 10581 10581 10582 10583 10584 10585 10585 10586 10586 10586 10587 10587 10588 10588
10474 10476 10477 10478 10480 10481 10482 10483 10486 10487 10488 10490 10491 10493 10495 10496 10497 10498 10499 10501 10502 10503 10504 10505 10506 10508 10509 10509 10511 10513 10514 10516 10518 10519 10521 10522 10524 10525 10527 10529 10531 10533 10534 10536 10538 10540 10541 10543 10544 10546 10548 10549 10551 10552 10553 10554 10556 10558 10559 10560 10561 10563 10564 10565 10566 10567 10568 10569 10570 10571 10573 10573 10574 10575 10576 10577 10578 10579 10579 10580 10580 10581 10581 10581 10581 10582
10468 10469 10470 10472 10474 10474 10475 10477 10479 10481 10482 10483 10485 10486 10488 10489 10491 10492 10494 10495 10496 10497 10498 10499 10500 10501 10502 10503 10504 10506 10508 10509 10511 10512 10514 10515 10517 10518 10520 10521 10523 10525 10528 10529 10531 10533 10534 10536 10538 10539 10541 10542 10544 10545 10546 10548 10549 10551 10552 10553 10555 10556 10558 10559 10559 10561 10561 10563 10564 10564 10566 10567 10568 10569 10569 10571 10571 10573 10573 10573 10574 10574 10574 10575 10575 10576
10461 10463 10463 10466 10467 10468 10468 10471 10473 10474 10475 10476 10478 10479 10481 10483 10484 10486 10488 10489 10490 10491 10492 10493 10494 10495 10496 10497 10498 10499 10501 10503 10504 10506 10507 10508 10510 10511 10513 10514 10516 10518 10520 10522 10524 10526 10528 10529 10531 10532 10534 10535 10536 10538 10539 10541 10542 10544 10545 10546 10548 10549 10551 10552 10553 10554 10555 10556 10557 10558 10559 10560 10561 10562 10563 10564 10565 10566 10566 10567 10568 10568 10568 10569 10569 10569
10454 10456 10457 10459 10460 10461 10462 10464 10466 10467 10468 10469 10471 10473 10474 10476 10478 10479 10481 10482 10483 10484 10486 10487 10488 10489 10490 10491 10492 10493 10494 10496 10497 10499 10500 10502 10503 10504 10506 10508 10509 10511 10513 10515 10516 10518 10520 10522 10523 10525 10526 10528 10529 10531 10533 10534 10535 10536 10538 10539 10541 10543 10544 10545 10546 10547 10548 10549 10550 10551 10553 10553 10554 10555 10556 10558 10558 10559 10559 10560 10561 10561 10562 10562 10563 10563
10448 10449 10450 10452 10453 10454 10456 10457 10458 10460 10462 10463 10464 10466 10468 10469 10471 10473 10474 10475 10477 10478 10479 10481 10482 10483 10484 10485 10486 10487 10488 10489 10491 10492 10493 10495 10496 10498 10499 10501 10503 10504 10506 10508 10509 10511 10513 10514 10516 10518 10519 10521 10523 10524 10525 10526 10528 10529 10531 10532 10534 10535 10536 10538 10539 10540 10541 10542 10543 10544 10546 10546 10548 10548 10549 10551 10551 10553 10553 10554 10554 10554 10555 10555 10556 10556
10440 10441 10443 10444 10446 10447 10449 10449 10451 10453 10455 10456 10458 10459 10460 10462 10464 10465 10466 10468 10469 10471 10473 10474 10475 10477 10478 10479 10480 10481 10483 10484 10484 10486 10487 10488 10489 10491 10493 10494 10496 10498 10499 10501 10503 10504 10506 10508 10509 10511 10512 10514 10515 10516 10518 10519 10521 10523 10524 10525 10526 10528 10529 10530 10531 10533 10534 10535 10536 10538 10539 10539 10541 10541 10543 10544 10544 10546 10546 10547 10548 10548 10548 10548 10548 10549
10433 10434 10435 10437 10438 10440 10441 10442 10444 10446 10448 10449 10451 10452 10453 10455 10456 10458 10459 10461 10462 10463 10466 10467 10468 10469 10471 10473 10474 10476 10476 10478 10479 10479 10481 10482 10483 10484 10486 10488 10489 10491 10492 10494 10495 10497 10498 10500 10502 10503 10505 10506 10508 10509 10511 10512 10514 10515 10516 10518 10519 10520 10521 10523 10524 10525 10526 10528 10529 10531 10532 10533 10534 10535 10536 10537 10538 10538 10539 10540 10541 10541 10541 10541 10542 10542
10424 10426 10428 10429 10431 10433 10434 10434 10436 10438 10441 10443 10444 10445 10447 10448 10449 10451 10453 10453 10454 10456 10459 10459 10461 10462 10464 10466 10468 10469 10470 10471 10473 10474 10474 10476 10477 10478 10479 10481 10482 10484 10485 10487 10488 10490 10491 10493 10494 10496 10498 10499 10501 10502 10504 10505 10506 10508 10509 10511 10512 10513 10514 10516 10516 10518 10519 10521 10522 10523 10524 10526 10527 10528 10529 10530 10531 10531 10532 10533 10533 10534 10534 10534 10534 10535
10416 10418 10419 10421 10423 10424 10426 10427 10428 10431 10434 10436 10436 10438 10439 10441 10442 10444 10445 10446 10447 10449 10451 10452 10453 10455 10457 10458 10460 10462 10464 10465 10466 10467 10469 10470 10471 10472 10473 10474 10476 10477 10478 10480 10481 10483 10484 10486 10488 10489 10491 10492 10493 10495 10496 10498 10499 10501 10502 10503 10504 10506 10507 10508 10509 10511 10512 10513 10514 10516 10518 10519 10520 10521 10522 10523 10524 10524 10525 10526 10526 10527 10527 10528 10528 10528
10408 10410 10412 10414 10415 10416 10418 10419 10421 10423 10426 10428 10428 10429 10431 10433 10435 10437 10438 10438 10439 10442 10444 10445 10446 10448 10449 10451 10453 10454 10456 10458 10459 10460 10462 10463 10465 10466 10468 10468 10469 10471 10472 10473 10474 10476 10478 10479 10480 10482 10483 10485 10486 10488 10489 10490 10491 10493 10494 10496 10497 10498 10500 10501 10502 10503 10504 10506 10507 10508 10509 10511 10513 10514 10515 10516 10517 10518 10518 10519 10519 10520 10520 10521 10521 10521
10401 10403 10404 10406 10407 10408 10410 10412 10414 10415 10417 10418 10420 10421 10423 10425 10428 10431 10431 10431 10432 10434 10436 10438 10439 10440 10441 10443 10445 10447 10448 10450 10451 10453 10455 10456 10458 10459 10461 10462 10463 10464 10466 10467 10468 10469 10471 10472 10474 10474 10476 10478 10479 10480 10482 10483 10484 10486 10487 10488 10489 10491 10493 10494 10495 10496 10498 10498 10499 10501 10502 10504 10505 10506 10508 10509 10510 10511 10511 10513 10513 10513 10514 10514 10514 10514
10392 10394 10396 10398 10398 10399 10402 10404 10406 10407 10408 10410 10413 10414 10416 10419 10421 10423 10423 10423 10424 10426 10429 10431 10431 10432 10434 10436 10438 10439 10441 10443 10444 10446 10448 10448 10450 10453 10454 10456 10456 10458 10459 10461 10461 10463 10464 10466 10467 10468 10469 10471 10472 10473 10474 10476 10477 10478 10479 10481 10483 10484 10485 10486 10488 10489 10490 10491 10493 10494 10495 10496 10498 10499 10500 10501 10503 10503 10504 10505 10506 10506 10507 10507 10507 10507
10383 10386 10388 10389 10389 10391 10394 10396 10398 10399 10401 10403 10406 10408 10409 10411 10412 10413 10414 10415 10416 10418 10421 10423 10423 10424 10426 10428 10429 10432 10434 10435 10436 10438 10439 10441 10443 10445 10448 10449 10449 10451 10453 10454 10455 10456 10458 10459 10461 10461 10463 10464 10464 10466 10468 10469 10470 10471 10473 10474 10475 10476 10478 10479 10481 10482 10483 10484 10485 10486 10488 10489 10490 10491 10492 10493 10494 10496 10497 10498 10499 10499 10500 10501 10501 10501
10375 10377 10379 10379 10381 10383 10386 10388 10390 10392 10393 10396 10398 10400 10401 10403 10403 10405 10408 10408 10409 10411 10413 10414 10415 10416 10418 10419 10422 10424 10427 10428 10428 10429 10431 10433 10434 10437 10441 10442 10443 10443 10445 10447 10448 10449 10451 10453 10454 10454 10456 10457 10458 10459 10461 10462 10463 10464 10466 10467 10468 10469 10471 10472 10473 10474 10476 10477 10478 10479 10481 10482 10483 10484 10484 10486 10487 10488 10489 10491 10491 10493 10493 10494 10494 10494
10366 10368 10369 10370 10372 10374 10376 10379 10382 10384 10386 10388 10389 10391 10393 10394 10396 10398 10399 10400 10401 10403 10404 10406 10407 10409 10409 10411 10413 10416 10419 10421 10422 10422 10424 10425 10426 10429 10433 10435 10435 10436 10438 10439 10441 10443 10444 10446 10447 10448 10449 10450 10451 10453 10454 10455 10456 10458 10459 10460 10461 10463 10464 10464 10466 10467 10468 10469 10471 10472 10474 10474 10476 10476 10478 10479 10479 10481 10482 10483 10484 10485 10486 10486 10487 10488
10357 10358 10359 10361 10363 10364 10367 10370 10373 10375 10377 10379 10381 10383 10384 10386 10388 10389 10391 10392 10393 10394 10396 10398 10399 10401 10402 10404 10405 10408 10413 10416 10416 10415 10417 10418 10419 10421 10424 10428 10428 10428 10429 10432 10433 10435 10437 10438 10439 10441 10442 10443 10444 10446 10447 10448 10449 10451 10452 10453 10454 10456 10457 10458 10459 10460 10461 10462 10463 10465 10466 10468 10469 10469 10471 10471 10473 10473 10474 10476 10476 10478 10478 10479 10480 10481
10347 10349 10351 10352 10353 10355 10358 10361 10363 10366 10368 10369 10371 10373 10376 10378 10379 10381 10383 10384 10385 10387 10388 10390 10391 10393 10394 10396 10398 10400 10405 10409 10409 10408 10409 10410 10411 10413 10417 10419 10420 10420 10422 10424 10425 10427 10429 10431 10432 10433 10435 10436 10438 10439 10440 10441 10443 10444 10445 10446 10448 10449 10450 10451 10452 10453 10454 10455 10456 10458 10459 10460 10461 10462 10464 10464 10466 10466 10468 10468 10469 10470 10471 10472 10473 10473
10338 10339 10341 10343 10344 10346 10349 10351 10353 10355 10358 10361 10363 10365 10367 10368 10370 10373 10374 10376 10377 10379 10381 10383 10384 10384 10386 10389 10391 10393 10397 10401 10402 10402 10401 10403 10404 10406 10409 10411 10413 10413 10414 10416 10418 10420 10422 10423 10424 10426 10428 10429 10430 10431 10433 10434 10436 10437 10438 10439 10441 10442 10443 10444 10445 10446 10447 10448 10449 10450 10451 10453 10454 10455 10456 10458 10458 10459 10460 10461 10462 10463 10464 10464 10465 10466
10329 10330 10331 10333 10336 10338 10339 10340 10343 10346 10349 10351 10353 10355 10356 10358 10361 10363 10365 10367 10369 10371 10373 10374 10375 10376 10379 10383 10384 10386 10389 10393 10395 10394 10394 10396 10398 10398 10399 10404 10406 10406 10406 10408 10409 10413 10414 10416 10417 10418 10420 10421 10423 10424 10426 10427 10428 10430 10431 10433 10433 10434 10436 10437 10438 10439 10440 10441 10442 10443 10444 10445 10446 10448 10449 10450 10451 10452 10453 10454 10454 10456 10456 10457 10458 10459
10319 10320 10321 10324 10326 10329 10329 10331 10333 10336 10339 10341 10343 10344 10346 10348 10351 10354 10355 10358 10360 10363 10363 10365 10367 10369 10373 10376 10376 10378 10381 10385 10386 10386 10388 10389 10389 10389 10391 10397 10399 10399 10398 10399 10402 10405 10407 10408 10409 10411 10412 10414 10415 10416 10418 10419 10421 10423 10424 10425 10426 10428 10429 10429 10431 10432 10433 10434 10435 10436 10437 10438 10439 10440 10441 10442 10443 10444 10445 10446 10447 10448 10449 10449 10451 10451
10309 10310 10312 10314 10317 10319 10320 10322 10324 10326 10329 10331 10333 10334 10336 10339 10342 10344 10346 10348 10351 10354 10355 10357 10360 10363 10365 10366 10368 10369 10373 10376 10378 10380 10381 10381 10380 10380 10384 10389 10392 10391 10390 10392 10395 10398 10399 10400 10401 10403 10405 10406 10408 10409 10410 10412 10413 10414 10416 10418 10419 10420 10421 10423 10424 10424 10426 10427 10428 10429 10430 10431 10431 10433 10433 10434 10436 10436 10438 10438 10439 10440 10441 10442 10443 10444
10298 10300 10302 10304 10306 10308 10310 10313 10314 10316 10318 10321 10323 10324 10327 10329 10332 10334 10336 10339 10342 10344 10346 10349 10351 10353 10354 10356 10359 10362 10364 10367 10370 10373 10374 10373 10372 10373 10377 10381 10384 10383 10383 10384 10388 10391 10392 10393 10393 10395 10398 10399 10400 10401 10403 10404 10406 10407 10408 10409 10411 10413 10414 10415 10416 10418 10418 10419 10421 10422 10423 10424 10424 10425 10426 10426 10428 10429 10429 10431 10431 10432 10433 10433 10434 10436
10288 10290 10292 10294 10296 10298 10300 10302 10304 10306 10308 10310 10313 10314 10317 10319 10322 10324 10327 10329 10332 10334 10337 10339 10342 10343 10344 10348 10352 10354 10355 10358 10362 10365 10366 10365 10365 10366 10369 10373 10375 10376 10376 10377 10380 10383 10384 10384 10386 10388 10390 10391 10392 10393 10395 10396 10398 10399 10401 10402 10403 10404 10406 10407 10408 10409 10411 10412 10413 10414 10416 10416 10418 10418 10418 10419 10419 10421 10421 10423 10423 10424 10424 10425 10426 10427
10276 10279 10281 10284 10286 10288 10289 10291 10293 10295 10297 10299 10302 10304 10306 10309 10313 10315 10317 10319 10321 10324 10328 10330 10332 10333 10336 10340 10344 10345 10346 10349 10353 10356 10357 10358 10358 10359 10360 10363 10367 10369 10369 10369 10372 10375 10377 10377 10378 10379 10382 10383 10384 10386 10388 10389 10390 10391 10393 10394 10396 10397 10398 10399 10401 10402 10403 10404 10406 10407 10408 10409 10409 10411 10411 10411 10412 10413 10413 10414 10415 10416 10416 10417 10418 10418
10266 10268 10271 10273 10275 10277 10279 10280 10282 10284 10286 10289 10291 10293 10296 10299 10303 10304 10306 10307 10310 10314 10319 10321 10323 10324 10327 10331 10334 10336 10338 10341 10345 10347 10348 10350 10352 10351 10351 10354 10359 10362 10362 10362 10363 10366 10369 10369 10370 10371 10373 10375 10377 10378 10380 10381 10382 10384 10385 10386 10388 10389 10391 10392 10393 10394 10395 10396 10398 10398 10399 10401 10402 10403 10403 10404 10404 10405 10406 10406 10407 10408 10408 10409 10409 10410
10254 10257 10259 10262 10264 10266 10268 10269 10271 10273 10276 10278 10280 10283 10286 10289 10292 10294 10294 10296 10301 10306 10310 10311 10312 10314 10319 10322 10324 10327 10329 10333 10335 10337 10339 10343 10344 10343 10341 10346 10351 10354 10354 10354 10356 10358 10361 10361 10362 10363 10366 10367 10369 10370 10372 10373 10374 10376 10377 10378 10380 10381 10383 10384 10385 10386 10388 10388 10389 10390 10391 10393 10393 10394 10395 10396 10396 10397 10398 10398 10399 10399 10400 10401 10401 10402
10243 10246 10249 10251 10253 10255 10257 10259 10261 10263 10264 10267 10269 10272 10275 10278 10281 10283 10284 10287 10292 10296 10299 10299 10302 10306 10311 10313 10316 10318 10321 10323 10324 10328 10332 10336 10336 10333 10333 10338 10343 10346 10345 10347 10349 10351 10351 10351 10353 10356 10358 10359 10360 10362 10364 10365 10366 10368 10369 10371 10372 10373 10374 10376 10377 10378 10379 10380 10381 10382 10383 10384 10385 10386 10387 10388 10388 10389 10389 10390 10391 10391 10392 10393 10393 10393
10233 10235 10238 10240 10242 10244 10247 10249 10250 10252 10254 10257 10259 10262 10264 10268 10271 10273 10276 10278 10282 10286 10288 10289 10293 10297 10301 10304 10307 10309 10310 10312 10314 10319 10325 10328 10326 10324 10324 10331 10335 10336 10336 10339 10342 10343 10341 10341 10344 10348 10351 10351 10352 10353 10355 10357 10358 10359 10361 10363 10364 10365 10366 10368 10369 10371 10371 10372 10373 10374 10375 10376 10376 10378 10378 10379 10380 10381 10381 10382 10383 10383 10384 10384 10384 10385
10222 10225 10228 10229 10231 10234 10237 10239 10240 10242 10244 10247 10249 10252 10254 10257 10260 10263 10266 10269 10272 10275 10278 10280 10284 10288 10292 10295 10298 10299 10300 10302 10306 10312 10317 10318 10316 10314 10317 10323 10326 10326 10327 10331 10334 10334 10332 10332 10335 10339 10342 10343 10344 10344 10346 10348 10350 10351 10353 10354 10355 10356 10358 10359 10361 10363 10363 10364 10365 10366 10367 10368 10368 10369 10369 10370 10371 10372 10373 10374 10374 10376 10376 10376 10376 10376
10212 10214 10217 10219 10221 10224 10226 10229 10230 10232 10234 10237 10239 10241 10244 10247 10250 10253 10256 10259 10262 10265 10268 10271 10274 10278 10281 10285 10288 10290 10291 10293 10298 10303 10307 10308 10308 10306 10308 10313 10316 10317 10318 10322 10325 10326 10325 10324 10326 10329 10333 10334 10335 10336 10338 10339 10341 10343 10344 10345 10346 10347 10348 10351 10353 10354 10354 10356 10357 10358 10359 10359 10360 10361 10361 10361 10363 10363 10364 10365 10366 10368 10368 10369 10369 10368
10201 10204 10206 10208 10211 10214 10216 10218 10220 10223 10224 10227 10229 10232 10234 10238 10240 10243 10246 10249 10253 10256 10259 10263 10266 10268 10272 10276 10279 10281 10283 10285 10288 10292 10296 10298 10299 10298 10299 10303 10306 10308 10309 10313 10315 10317 10317 10317 10318 10319 10322 10324 10326 10328 10329 10331 10332 10334 10335 10336 10338 10338 10339 10341 10344 10345 10346 10347 10348 10349 10350 10351 10351 10352 10353 10353 10354 10354 10355 10356 10358 10359 10360 10361 10361 10361
10191 10194 10196 10198 10201 10204 10206 10208 10211 10213 10215 10218 10219 10223 10225 10228 10231 10234 10237 10240 10243 10247 10251 10254 10257 10259 10263 10266 10269 10271 10274 10276 10279 10283 10286 10289 10289 10289 10290 10293 10296 10299 10301 10303 10305 10307 10308 10309 10309 10311 10313 10314 10316 10318 10320 10322 10323 10324 10326 10328 10328 10329 10330 10332 10334 10336 10337 10338 10339 10341 10341 10342 10343 10343 10344 10344 10345 10346 10346 10348 10349 10350 10351 10352 10353 10353
10181 10184 10186 10188 10191 10194 10196 10199 10201 10204 10206 10208 10211 10213 10216 10219 10222 10224 10228 10231 10234 10238 10241 10244 10248 10251 10254 10257 10259 10262 10264 10266 10269 10273 10277 10279 10279 10280 10281 10284 10286 10289 10291 10294 10296 10297 10299 10300 10301 10302 10304 10306 10306 10308 10309 10312 10314 10316 10317 10318 10318 10319 10321 10323 10324 10326 10328 10329 10330 10331 10332 10333 10334 10335 10336 10336 10336 10338 10338 10339 10340 10341 10342 10343 10344 10345
10172 10174 10176 10179 10182 10184 10187 10189 10192 10194 10198 10199 10202 10205 10208 10211 10213 10216 10219 10222 10225 10228 10231 10235 10239 10243 10246 10248 10251 10253 10254 10257 10260 10264 10267 10269 10269 10271 10273 10274 10276 10278 10283 10285 10286 10287 10289 10291 10292 10293 10294 10296 10297 10298 10299 10303 10306 10308 10308 10307 10308 10310 10312 10313 10315 10316 10318 10319 10320 10321 10322 10324 10325 10326 10326 10327 10328 10329 10329 10330 10331 10332 10333 10334 10335 10336
10163 10165 10167 10170 10173 10176 10178 10181 10183 10186 10189 10191 10194 10197 10200 10203 10204 10207 10210 10213 10216 10219 10222 10226 10229 10233 10236 10239 10242 10244 10246 10248 10251 10254 10256 10258 10260 10262 10264 10264 10266 10268 10272 10274 10275 10276 10279 10281 10282 10283 10284 10286 10287 10289 10291 10293 10296 10298 10298 10298 10299 10301 10303 10304 10305 10307 10308 10309 10310 10311 10313 10314 10316 10317 10318 10318 10319 10320 10321 10321 10322 10323 10324 10325 10326 10326
10153 10156 10158 10161 10164 10167 10170 10172 10174 10178 10180 10183 10186 10188 10191 10194 10196 10198 10201 10204 10207 10209 10213 10216 10219 10223 10226 10230 10233 10235 10237 10239 10241 10243 10245 10248 10250 10253 10254 10255 10256 10258 10261 10263 10265 10267 10269 10270 10271 10272 10273 10275 10278 10280 10282 10284 10286 10288 10288 10289 10290 10292 10293 10294 10294 10297 10299 10300 10301 10302 10303 10304 10306 10307 10308 10309 10310 10311 10312 10312 10313 10313 10315 10316 10316 10316
10144 10147 10149 10153 10156 10159 10161 10164 10166 10169 10172 10175 10178 10180 10182 10184 10187 10189 10192 10195 10198 10200 10203 10206 10209 10213 10216 10220 10223 10226 10228 10230 10232 10233 10235 10238 10239 10241 10243 10245 10246 10248 10249 10252 10254 10256 10258 10259 10260 10262 10264 10266 10268 10270 10272 10274 10276 10278 10279 10280 10281 10282 10283 10283 10285 10288 10289 10290 10291 10292 10293 10294 10296 10297 10298 10299 10300 10301 10302 10302 10303 10304 10305 10306 10306 10306
10136 10138 10141 10144 10147 10150 10153 10156 10158 10161 10164 10166 10168 10171 10173 10175 10177 10179 10182 10185 10188 10191 10193 10196 10199 10203 10206 10210 10214 10217 10219 10221 10223 10224 10226 10227 10229 10231 10233 10234 10236 10237 10238 10241 10243 10245 10246 10248 10250 10252 10254 10256 10258 10260 10262 10264 10266 10269 10270 10271 10272 10272 10272 10274 10277 10278 10279 10279 10281 10282 10283 10284 10286 10287 10288 10289 10289 10291 10291 10292 10293 10294 10294 10295 10296 10296
10128 10130 10132 10135 10138 10142 10145 10147 10149 10152 10154 10157 10159 10161 10163 10165 10168 10170 10173 10176 10178 10181 10183 10186 10189 10193 10196 10199 10203 10207 10210 10213 10214 10215 10216 10217 10218 10220 10222 10224 10225 10226 10228 10230 10232 10233 10236 10238 10240 10242 10244 10246 10248 10251 10253 10254 10256 10258 10261 10262 10263 10263 10264 10266 10268 10268 10268 10269 10271 10272 10273 10274 10276 10276 10278 10278 10279 10280 10281 10282 10283 10283 10284 10284 10285 10286
10118 10121 10123 10126 10130 10133 10136 10138 10141 10143 10145 10147 10149 10151 10153 10156 10158 10161 10164 10166 10168 10171 10174 10177 10179 10183 10186 10189 10193 10197 10201 10204 10205 10206 10207 10208 10209 10210 10211 10213 10214 10216 10218 10219 10221 10223 10224 10228 10231 10233 10234 10236 10239 10241 10242 10243 10245 10248 10251 10252 10253 10254 10256 10256 10257 10258 10259 10260 10261 10262 10263 10264 10265 10266 10267 10268 10269 10269 10270 10271 10272 10273 10273 10274 10274 10275
10108 10111 10114 10117 10120 10123 10126 10128 10131 10133 10134 10136 10139 10141 10143 10146 10149 10152 10154 10156 10159 10161 10164 10168 10170 10173 10176 10179 10183 10186 10191 10194 10196 10198 10198 10199 10199 10200 10201 10203 10204 10206 10208 10209 10211 10213 10215 10218 10221 10223 10224 10227 10229 10231 10232 10233 10234 10238 10239 10241 10243 10244 10246 10246 10247 10249 10251 10252 10251 10251 10253 10254 10255 10256 10256 10258 10258 10259 10259 10260 10261 10262 10263 10263 10264 10264
10098 10101 10104 10106 10109 10113 10115 10118 10120 10122 10124 10128 10129 10131 10134 10137 10140 10143 10145 10147 10149 10153 10155 10158 10161 10163 10166 10168 10172 10176 10180 10184 10186 10188 10189 10190 10191 10191 10192 10193 10194 10195 10197 10199 10202 10204 10206 10209 10211 10213 10215 10218 10220 10221 10221 10223 10224 10227 10229 10231 10233 10235 10236 10237 10238 10241 10243 10242 10241 10242 10243 10244 10245 10246 10246 10247 10248 10248 10249 10249 10251 10251 10252 10253 10253 10254
10088 10091 10093 10096 10099 10102 10104 10107 10110 10113 10116 10118 10119 10121 10124 10128 10131 10134 10136 10138 10141 10143 10146 10149 10152 10154 10156 10158 10161 10166 10170 10173 10176 10178 10180 10181 10183 10183 10183 10184 10184 10186 10188 10190 10192 10195 10198 10199 10201 10204 10206 10209 10210 10211 10211 10213 10214 10217 10218 10220 10223 10225 10226 10228 10229 10231 10233 10233 10233 10233 10234 10234 10235 10236 10236 10236 10236 10237 10238 10239 10240 10241 10241 10242 10243 10243
10078 10080 10083 10086 10089 10092 10095 10098 10101 10104 10106 10108 10110 10112 10115 10118 10121 10124 10126 10129 10132 10134 10137 10140 10143 10145 10146 10148 10153 10157 10160 10163 10165 10168 10171 10173 10174 10174 10175 10175 10176 10177 10179 10181 10183 10186 10189 10191 10193 10195 10197 10199 10200 10201 10201 10204 10206 10207 10208 10210 10213 10215 10216 10218 10220 10221 10223 10224 10225 10225 10225 10226 10226 10226 10226 10226 10226 10228 10229 10229 10230 10230 10231 10231 10232 10233
10068 10071 10074 10077 10079 10083 10086 10088 10091 10094 10097 10099 10101 10104 10106 10109 10112 10114 10117 10119 10123 10126 10128 10131 10134 10136 10138 10140 10144 10147 10150 10153 10156 10159 10162 10164 10166 10166 10167 10168 10168 10169 10170 10172 10174 10177 10179 10182 10184 10186 10188 10189 10190 10191 10192 10194 10196 10198 10199 10201 10203 10205 10207 10208 10210 10213 10214 10216 10216 10216 10216 10217 10217 10217 10216 10216 10217 10218 10218 10218 10219 10220 10221 10221 10222 10222
10059 10062 10065 10068 10071 10073 10076 10079 10083 10085 10088 10090 10092 10095 10098 10101 10103 10106 10108 10111 10114 10117 10120 10123 10125 10128 10130 10133 10136 10138 10141 10144 10146 10149 10153 10155 10157 10158 10159 10159 10160 10161 10163 10164 10166 10168 10171 10173 10175 10177 10178 10179 10181 10182 10183 10185 10188 10189 10190 10191 10193 10195 10197 10198 10201 10203 10206 10206 10207 10208 10208 10208 10208 10208 10208 10208 10208 10208 10208 10208 10209 10209 10210 10211 10212 10212
10051 10053 10056 10059 10061 10064 10067 10070 10073 10076 10079 10081 10084 10086 10089 10092 10095 10098 10099 10102 10105 10108 10111 10113 10116 10119 10123 10125 10128 10131 10133 10135 10138 10140 10143 10146 10148 10150 10151 10152 10153 10154 10155 10156 10158 10160 10162 10164 10166 10168 10169 10171 10172 10173 10174 10176 10178 10180 10181 10183 10184 10186 10188 10189 10191 10194 10196 10197 10198 10198 10199 10199 10199 10199 10199 10199 10199 10198 10198 10198 10199 10199 10199 10201 10202 10203
10042 10044 10047 10050 10053 10056 10058 10061 10064 10068 10070 10073 10075 10078 10081 10084 10087 10089 10092 10094 10097 10099 10103 10105 10108 10112 10114 10117 10120 10123 10126 10127 10129 10132 10134 10138 10140 10142 10143 10144 10146 10147 10148 10149 10150 10152 10154 10156 10157 10159 10161 10163 10164 10165 10166 10167 10169 10171 10173 10174 10175 10177 10179 10180 10182 10184 10186 10188 10188 10189 10189 10190 10190 10190 10191 10191 10190 10189 10189 10189 10189 10189 10189 10191 10192 10193